Location: St Paul
(33.9360°N, 83.4200°W)
Time: 00:00:06
(UTC-04:00)

METEOR-M - Pass Details

Date: 19 March 2019
Orbit: 816 x 819 km, 98.4° (Epoch: 21 April)

Event Time Altitude Azimuth Distance (km) Brightness Sun altitude
Rises 06:38:39 0° 25° (NNE) 3,347 7.8 -13.3°
Reaches altitude 10° 06:41:16 10° 35° (NE) 2,411 7.2 -12.8°
Maximum altitude 06:45:57 31° 97° (E) 1,405 6.2 -11.8°
Drops below altitude 10° 06:50:36 10° 158° (SSE) 2,399 6.8 -10.9°
Sets 06:53:11 0° 169° (S) 3,328 7.4 -10.3°
